Weather History for New Philadelphia, OH

Change the Weather History Date:

Friday, December 23, 2011

  Actual Average Record
Temperature  
Mean Temperature 35 °F 31 °F  
Max Temperature 38 °F 39 °F 60 °F (1990)
Min Temperature 31 °F 23 °F -16 °F (1989)
Degree Days  
Heating Degree Days 30 34  
Month to date heating degree days 65 722  
Since 1 July heating degree days 65 1880  
Cooling Degree Days 0 0  
Month to date cooling degree days 0 0  
Year to date cooling degree days 0 697  
Moisture  
Dew Point 29 °F    
Average Humidity 74    
Maximum Humidity 85    
Minimum Humidity 63    
Precipitation  
Precipitation 0.01 in 0.09 in 1.36 in (2004)
Month to date precipitation 1.07 2.02  
Year to date precipitation 1.07 38.25  
Sea Level Pressure  
Sea Level Pressure 30.23 in    
Wind  
Wind Speed 6 mph (NNW)    
Max Wind Speed 13 mph    
Max Gust Speed 16 mph    
Visibility 8 miles    
Events Snow    
T = Trace of Precipitation, MM = Missing Value Source: NWS Daily Summary

Daily Weather History Graph

Daily Weather History Graph

Search for Another Location

Airport:

Trip Planner

Search our weather history database for the weather conditions in past years. The results will help you decide how hot, cold, wet, or windy it might be!

Date:

Astronomy

Dec. 23, 2011 Rise Set
Actual Time 7:46 AM EST 5:03 PM EST
Civil Twilight 7:15 AM EST 5:34 PM EST
Nautical Twilight 6:41 AM EST 6:08 PM EST
Astronomical Twilight 6:07 AM EST 6:41 PM EST
Moon 6:34 AM EST (12/23) 4:10 PM EST (12/23)
Length of Visible Light 10h 18m
Length of Day
9h 16m
Waning Crescent, 1% of the Moon is Illuminated
Dec 23
Waning Crescent
Dec 24
New
Jan 1
First Quarter
Jan 9
Full
Jan 16
Last Quarter

Hourly Weather History & Observations

Time (EST) Temp. Windchill Dew Point Humidity Pressure Visibility Wind Dir Wind Speed Gust Speed Precip Events Conditions
12:09 AM 37.4 °F 34.9 °F 33.8 °F 87% 30.01 in 10.0 mi North 3.5 mph - 0.00 in   Overcast
12:53 AM 36.0 °F 32.1 °F 33.1 °F 89% 30.04 in 10.0 mi NNW 4.6 mph - 0.00 in   Overcast
1:53 AM 37.0 °F 31.0 °F 33.1 °F 86% 30.06 in 10.0 mi NNW 8.1 mph - N/A   Overcast
2:53 AM 37.0 °F 32.4 °F 33.1 °F 86% 30.09 in 10.0 mi NNW 5.8 mph - N/A   Overcast
3:53 AM 37.9 °F 32.7 °F 34.0 °F 86% 30.10 in 9.0 mi North 6.9 mph - N/A   Overcast
4:50 AM 37.4 °F 32.1 °F 33.8 °F 87% 30.10 in 10.0 mi North 6.9 mph - N/A   Overcast
4:53 AM 37.9 °F 33.5 °F 33.1 °F 83% 30.13 in 10.0 mi North 5.8 mph - N/A   Overcast
5:53 AM 37.9 °F 35.5 °F 34.0 °F 86% 30.16 in 9.0 mi NNW 3.5 mph - N/A   Overcast
6:53 AM 37.9 °F 35.5 °F 34.0 °F 86% 30.17 in 8.0 mi North 3.5 mph - N/A   Overcast
7:53 AM 37.9 °F 33.5 °F 32.0 °F 79% 30.19 in 10.0 mi North 5.8 mph - N/A   Overcast
8:53 AM 37.0 °F 32.4 °F 30.9 °F 79% 30.22 in 10.0 mi North 5.8 mph - N/A   Overcast
9:53 AM 35.1 °F 27.4 °F 30.0 °F 82% 30.26 in 10.0 mi North 10.4 mph - N/A   Overcast
10:53 AM 34.0 °F 28.0 °F 28.9 °F 82% 30.29 in 4.0 mi North 6.9 mph - N/A   Haze
11:22 AM 33.8 °F 27.0 °F 28.4 °F 81% 30.27 in 2.5 mi North 8.1 mph - N/A   Overcast
11:25 AM 33.8 °F 25.3 °F 28.4 °F 81% 30.27 in 1.8 mi NNW 11.5 mph 16.1 mph 0.00 in Snow Light Snow
11:33 AM 33.8 °F 28.6 °F 28.4 °F 81% 30.27 in 1.0 mi NNW 5.8 mph - 0.00 in Snow Light Snow
11:42 AM 32.0 °F 24.8 °F 28.4 °F 87% 30.27 in 1.0 mi North 8.1 mph - 0.00 in Snow Light Snow
11:53 AM 32.0 °F 25.6 °F 28.9 °F 88% 30.30 in 1.0 mi NNW 6.9 mph - 0.00 in Snow Light Snow
12:05 PM 32.0 °F 25.6 °F 28.4 °F 87% 30.26 in 1.5 mi NNW 6.9 mph - 0.01 in Snow Light Snow
12:09 PM 32.0 °F 24.8 °F 28.4 °F 87% 30.26 in 2.0 mi NNW 8.1 mph - 0.01 in Snow Light Snow
12:24 PM 33.8 °F 27.0 °F 28.4 °F 81% 30.25 in 4.0 mi North 8.1 mph - 0.01 in   Haze
12:32 PM 33.8 °F 25.8 °F 28.4 °F 81% 30.25 in 4.0 mi NNW 10.4 mph - 0.01 in   Haze
1:53 PM 34.0 °F 28.0 °F 28.0 °F 79% 30.27 in 10.0 mi North 6.9 mph - N/A   Overcast
2:10 PM 33.8 °F 28.6 °F 28.4 °F 81% 30.24 in 10.0 mi North 5.8 mph - N/A   Overcast
2:28 PM 33.8 °F 27.0 °F 26.6 °F 75% 30.24 in 10.0 mi North 8.1 mph - N/A   Overcast
2:45 PM 33.8 °F 27.7 °F 26.6 °F 75% 30.24 in 10.0 mi North 6.9 mph - N/A   Overcast
2:53 PM 33.1 °F 26.9 °F 27.0 °F 78% 30.27 in 10.0 mi North 6.9 mph - N/A   Overcast
3:53 PM 33.1 °F 26.9 °F 26.1 °F 75% 30.28 in 10.0 mi North 6.9 mph - N/A   Overcast
4:53 PM 32.0 °F 24.8 °F 24.1 °F 73% 30.29 in 10.0 mi North 8.1 mph - N/A   Overcast
5:53 PM 32.0 °F 28.7 °F 24.1 °F 73% 30.30 in 10.0 mi North 3.5 mph - N/A   Overcast
6:53 PM 32.0 °F 28.7 °F 21.9 °F 66% 30.32 in 10.0 mi NNW 3.5 mph - N/A   Overcast
8:53 PM 30.9 °F 26.2 °F 23.0 °F 72% 30.32 in 10.0 mi NNW 4.6 mph - N/A   Overcast
9:53 PM 30.9 °F 26.2 °F 21.9 °F 69% 30.32 in 10.0 mi NNW 4.6 mph - N/A   Overcast
10:53 PM 30.9 °F 24.3 °F 19.9 °F 64% 30.33 in 10.0 mi NNW 6.9 mph - N/A   Overcast
11:53 PM 30.9 °F 26.2 °F 21.0 °F 67% 30.34 in 10.0 mi North 4.6 mph - N/A   Overcast